User: anonymous   Login
Location: Newark
(52.3735°N, 16.9806°E)
Time: 15:46:52
(UTC+00:00)
Language:

AAUSAT CUBESAT 2 - Orbit

View from above orbital plane
View from above orbital plane
View from above satellite
View from above satellite

Ground track
Ground track

The orbit data is extracted from the following two-line orbital elements,

1 32788U 08021F   21332.18780791  .00001735  00000-0  15952-3 0  9992
2 32788  97.5177 320.1225 0013289  81.3325 278.9402 14.95971981738437
Epoch (UTC): 28 November 2021 04:30:26
Eccentricity: 0.0013289
inclination: 97.5177°
perigee height: 570 km
apogee height: 588 km
right ascension of ascending node: 320.1225°
argument of perigee: 81.3325°
revolutions per day: 14.95971981
mean anomaly at epoch: 278.9402°
orbit number at epoch: 73843

The dashed part of the orbit path shows where the satellite is in the earth's shadow,  

DLR